Regional Weather Roundup
Issued by NWS

Home | Current Version | Previous Version | Graphics & Text | Print | Product List | Glossary On
Versions: 1 2 3 4 5 6 7 8 9 10 11 12 13 14 15 16 17 18 19 20 21 22 23 24 25 26 27 28 29 30 31 32 33 34 35 36 37 38 39 40 41 42 43 44 45 46 47 48 49 50
000
ASUS43 KTOP 261008
RWRKS

WEATHER ROUNDUP FOR KANSAS
NATIONAL WEATHER SERVICE GOODLAND KS
500 AM CDT FRI MAY 26 2017

NOTE:  "FAIR" INDICATES FEW OR NO CLOUDS BELOW 12,000 FEET WITH NO
SIGNIFICANT WEATHER AND/OR OBSTRUCTIONS TO VISIBILITY.

KSZ001>006-013>018-027>032-041>047-261100-
NORTHWEST KANSAS

CITY           SKY/WX    TMP DP  RH WIND       PRES   REMARKS
GOODLAND       MOCLDY    54  50  86 NW12      29.86R
HAYS           CLEAR     54  53  97 W6        29.72S
HILL CITY      PTCLDY    56  53  90 CALM      29.74R
RUSSELL        CLEAR     56  54  93 W7        29.69R
$$

KSZ061>065-074>080-084>089-261100-
SOUTHWEST KANSAS

CITY           SKY/WX    TMP DP  RH WIND       PRES   REMARKS
DODGE CITY     CLEAR     57  53  86 N10       29.74R
ELKHART          N/A     53  41  64 N8          N/A
GARDEN CITY    CLEAR     55  50  83 N10       29.75F
GREAT BEND     CLEAR     59  57  93 NW8       29.71R
LIBERAL        CLEAR     57  53  86 NW12      29.78R
PRATT          CLEAR     55  54  94 NW5       29.66R
$$

KSZ066>073-081>083-090>101-261100-
SOUTHEAST KANSAS

CITY           SKY/WX    TMP DP  RH WIND       PRES   REMARKS
CHANUTE        PTCLDY    66  58  75 E10       29.62S
COFFEYVILLE    MOCLDY    66  65  96 E10       29.59F
HUTCHINSON     CLEAR     60  57  89 CALM      29.61R
MEDICINE LODGE   N/A     63  59  87 N5        29.61R
NEWTON         PTCLDY    63  59  87 SE10      29.61R
PARSONS        MOCLDY    68  60  75 E5        29.61F
WICHITA INTL   PTCLDY    65  61  87 E8        29.59R
WICHITA JABRA  CLEAR     61  59  93 SE6       29.59R
WICHITA MCCONL CLEAR     65  59  81 E7        29.59R
WINFIELD       PTCLDY    66  61  84 N7        29.61R
$$

KSZ007>012-019>026-033>040-048>060-102>105-261100-
NORTHEAST KANSAS

CITY           SKY/WX    TMP DP  RH WIND       PRES   REMARKS
CONCORDIA      CLEAR     59  59 100 W6        29.67R
EMPORIA        MOCLDY    64  60  87 SE8       29.60R
LAWRENCE       CLOUDY    64  60  87 CALM      29.61R
MANHATTAN      CLOUDY    61  60  97 N8        29.63R
MARYSVILLE     FOG       59  59 100 CALM      29.66R VSB 1/2
OLATHE IND     CLOUDY    64  59  83 SE23G30   29.57F
OLATHE EXE     CLOUDY    63  61  93 S18       29.58F
SALINA         CLEAR     61  59  93 NW6       29.66R
TOPEKA BILLARD CLEAR     62  61  96 N6        29.61R
TOPEKA FORBES  PTCLDY    62  60  93 S8        29.60R
$$




USA.gov is the U.S. government's official web portal to all federal, state and local government web resources and services.